Home   Weather   Tsingtao   Past weeks
Flag for China

Past Weather in Tsingtao, Shandong, China — Yesterday and Last 2 Weeks

Now
64 °F

Fog.


Feels Like: 64 °F
Forecast: 70 / 63 °F
Wind: 6 mph from South

Location: Qingdao Airport

Current Time: May 27, 2019 at 1:20:18 am

Latest Report: May 27, 2019 at 1:00 am


Visibility: 3 mi

Pressure: 29.59 "Hg

Humidity: 100%

Dew Point: 64 °F

Location of TsingtaoLocation

Past Weather in Tsingtao — Graph

°F

Tsingtao Temperature Yesterday

Maximum temperature yesterday: 70 °F (at 12:00 am)
Minimum temperature yesterday: 64 °F (at 8:00 pm)
Average temperature yesterday: 67 °F

High & Low Weather Summary for the Past Weeks

 TemperatureHumidityPressure
High93 °F (May 23, 12:00 pm)94% (May 12, 1:00 am)29.95 "Hg (May 12, 1:00 am)
Low48 °F (May 14, 5:00 am)16% (May 21, 3:00 pm)29.59 "Hg (May 22, 3:00 pm)
Average70 °F63%29.78 "Hg
* Reported May 12 12:00 am — May 27 12:00 am, Tsingtao. Weather by CustomWeather, © 2019

Note: Actual official high and low records may vary slightly from our data, if they occured in-between our weather recording intervals... More about our weather records

Advertising

Tsingtao Weather History for the Previous 24 Hours

Scroll right to see more
 ConditionsComfort  
Time TempWeatherWind HumidityBarometerVisibility
12:00 am
Mon, May 27
64 °FMostly cloudy.1 mph94%29.59 "HgN/A
11:00 pm
Sun, May 26
64 °FMostly cloudy.8 mph94%29.62 "HgN/A
10:00 pm64 °FMostly cloudy.13 mph94%29.59 "HgN/A
9:00 pm64 °FMostly cloudy.13 mph94%29.62 "HgN/A
8:00 pm64 °FMostly cloudy.13 mph94%29.62 "Hg5 mi
7:00 pm66 °FDrizzle. Mostly cloudy.15 mph94%29.62 "Hg4 mi
6:00 pm66 °FDrizzle. Fog.13 mph94%29.62 "Hg3 mi
5:00 pm66 °FDrizzle. Fog.10 mph94%29.62 "Hg2 mi
4:00 pm66 °FDrizzle. Fog.13 mph94%29.62 "Hg2 mi
3:00 pm66 °FDrizzle. Fog.13 mph94%29.62 "Hg2 mi
2:00 pm66 °FDrizzle. Fog.15 mph94%29.65 "Hg2 mi
1:00 pm66 °FDrizzle. Fog.15 mph94%29.68 "Hg2 mi
12:00 pm66 °FLight rain. Fog.13 mph94%29.71 "Hg2 mi
11:00 am68 °FMostly cloudy.17 mph88%29.71 "Hg5 mi
10:00 am68 °FMostly cloudy.17 mph94%29.74 "Hg4 mi
9:00 am68 °FLight rain. Fog.13 mph94%29.74 "Hg3 mi
8:00 am68 °FLight rain. Fog.10 mph94%29.74 "Hg2 mi
7:00 am68 °FBroken clouds.13 mph88%29.74 "Hg4 mi
6:00 am68 °FBroken clouds.13 mph88%29.74 "Hg4 mi
5:00 am68 °FScattered clouds.10 mph88%29.74 "Hg4 mi
4:00 am68 °FPartly cloudy.10 mph88%29.74 "Hg5 mi
3:00 am70 °FPassing clouds.8 mph88%29.74 "HgN/A
2:00 am68 °FPassing clouds.13 mph88%29.77 "HgN/A
1:00 am68 °FClear.13 mph88%29.77 "Hg10 mi
Weather by CustomWeather, © 2019

See weather overview